Squaw Valley, USA 16 day weather forecast

Slopes altitude range 1890 m - 2760m

Number of lifts: 27 Pistes: 100km

In some cases the lift and piste totals shown are for the ski domain (e.g. Three Valleys) rather than individual resort (e.g. Courchevel)

Overview

The 16 day weather forecast is fully updated 4 times every day.

    • Sun 23 SEP 2018
    • Sun 23
    • 7C 7C
    • Mon 24 SEP 2018
    • Mon 24
    • 5C 6C
    • Tue 25 SEP 2018
    • Tue 25
    • 6C 8C
    • Wed 26 SEP 2018
    • Wed 26
    • 6C 7C
    • Thu 27 SEP 2018
    • Thu 27
    • 9C 10C
    • Fri 28 SEP 2018
    • Fri 28
    • 9C 10C
    • Sat 29 SEP 2018
    • Sat 29
    • 8C 10C
    • Sun 30 SEP 2018
    • Sun 30
    • 4C 6C
    • Mon 01 OCT 2018
    • Mon 01
    • 5C 6C
    • Tue 02 OCT 2018
    • Tue 02
    • 5C 5C
    • Wed 03 OCT 2018
    • Wed 03
    • 5C 18C
    • Thu 04 OCT 2018
    • Thu 04
    • 5C 18C
    • Fri 05 OCT 2018
    • Fri 05
    • 6C 20C
    • Sat 06 OCT 2018
    • Sat 06
    • 7C 21C
    • Sun 07 OCT 2018
    • Sun 07
    • 6C 19C
    • Mon 08 OCT 2018
    • Mon 08
    • 4C 16C

Date:

Time Type 0°C level Temp Chill Snow Cloud Speed Gust Dir Press
3:00 4263m 9°C 9_7 0cm 0% 7mph 8mph 1014mB
6:00 4279m 7°C 7_7 0cm 34% 7mph 9mph 1015mB
9:00 4182m 7°C 7_8 0cm 100% 8mph 9mph 1015mB
12:00 4090m 7°C 7_7 0cm 100% 7mph 9mph 1014mB
15:00 4078m 8°C 8_7 0cm 56% 7mph 11mph 1014mB
18:00 3924m 14°C 14_15 0cm 67% 15mph 21mph 1013mB
21:00 3938m 14°C 14_18 0cm 1% 18mph 23mph 1011mB
0:00 4041m 14°C 14_15 0cm 0% 15mph 19mph 1010mB
3:00 4124m 8°C 8_6 0cm 0% 6mph 7mph 1012mB
6:00 4139m 6°C 6_4 0cm 0% 4mph 5mph 1014mB
9:00 4184m 5°C 5_3 0cm 0% 3mph 4mph 1015mB
12:00 4191m 6°C 6_2 0cm 0% 2mph 2mph 1014mB
15:00 4416m 6°C 6_1 0cm 0% 1mph 2mph 1015mB
18:00 4519m 14°C 14_3 0cm 0% 3mph 4mph 1014mB
21:00 4074m 14°C 14_4 0cm 0% 4mph 6mph 1012mB
0:00 4167m 14°C 14_6 0cm 0% 6mph 7mph 1011mB
3:00 4049m 9°C 9_3 0cm 0% 3mph 4mph 1014mB
6:00 4521m 8°C 8_4 0cm 0% 4mph 6mph 1015mB
9:00 4404m 7°C 7_4 0cm 0% 4mph 5mph 1016mB
12:00 4457m 8°C 8_3 0cm 0% 3mph 4mph 1017mB
15:00 4697m 7°C 7_3 0cm 0% 3mph 4mph 1018mB
18:00 4791m 12°C 12_7 0cm 0% 7mph 9mph 1017mB
21:00 4813m 12°C 12_8 0cm 0% 8mph 8mph 1015mB
0:00 4881m 12°C 12_8 0cm 0% 8mph 9mph 1014mB
3:00 5050m 9°C 9_3 0cm 0% 3mph 3mph 1017mB
6:00 5031m 7°C 7_3 0cm 0% 3mph 3mph 1019mB
9:00 4993m 6°C 6_2 0cm 0% 2mph 3mph 1019mB
12:00 5103m 7°C 7_1 0cm 0% 1mph 2mph 1019mB
15:00 5114m 8°C 8_2 0cm 0% 2mph 3mph 1020mB
18:00 5110m 16°C 16_4 0cm 0% 4mph 5mph 1018mB
21:00 5091m 16°C 16_3 0cm 0% 3mph 5mph 1015mB
0:00 5128m 16°C 16_6 0cm 0% 6mph 7mph 1014mB
3:00 5228m 12°C 12_3 0cm 8% 3mph 4mph 1016mB
6:00 5169m 10°C 10_2 0cm 33% 2mph 3mph 1017mB
9:00 5202m 10°C 10_3 0cm 92% 3mph 4mph 1016mB
12:00 5123m 10°C 10_3 0cm 82% 3mph 4mph 1016mB
15:00 5068m 10°C 10_3 0cm 1% 3mph 4mph 1016mB
18:00 5051m 19°C 19_2 0cm 14% 2mph 3mph 1014mB
21:00 4905m 19°C 19_7 0cm 49% 7mph 9mph 1012mB
0:00 4799m 17°C 17_9 0cm 52% 9mph 11mph 1010mB
3:00 4790m 12°C 12_5 0cm 81% 5mph 7mph 1012mB
6:00 4846m 10°C 10_3 0cm 79% 3mph 4mph 1013mB
9:00 4897m 10°C 10_4 0cm 77% 4mph 5mph 1013mB
12:00 4888m 10°C 10_5 0cm 65% 5mph 6mph 1013mB
15:00 4830m 10°C 10_5 0cm 31% 5mph 6mph 1014mB
18:00 4819m 17°C 17_3 0cm 36% 3mph 6mph 1013mB
21:00 4544m 17°C 17_9 0cm 84% 9mph 11mph 1011mB
0:00 4657m 16°C 16_10 0cm 80% 10mph 12mph 1010mB
3:00 4582m 11°C 11_5 0cm 73% 5mph 7mph 1012mB
6:00 4486m 9°C 9_4 0cm 63% 4mph 5mph 1013mB
9:00 4411m 9°C 9_5 0cm 98% 5mph 6mph 1013mB
12:00 4433m 10°C 10_5 0cm 66% 5mph 6mph 1013mB
15:00 4314m 9°C 9_5 0cm 0% 5mph 6mph 1014mB
18:00 4060m 16°C 16_10 0cm 0% 10mph 16mph 1012mB
21:00 4105m 16°C 16_20 0cm 0% 20mph 27mph 1010mB
0:00 3912m 14°C 14_18 0cm 1% 18mph 27mph 1009mB
3:00 4152m 8°C 8_5 0cm 0% 5mph 7mph 1011mB
6:00 3929m 6°C 6_6 0cm 0% 6mph 7mph 1013mB
9:00 3660m 5°C 5_5 0cm 0% 5mph 6mph 1013mB
12:00 3438m 6°C 6_7 0cm 0% 7mph 8mph 1014mB
15:00 3298m 5°C 5_8 0cm 0% 8mph 17mph 1015mB
18:00 3344m 11°C 11_14 0cm 0% 14mph 20mph 1014mB
21:00 3569m 11°C 11_13 0cm 0% 13mph 17mph 1013mB
0:00 4161m 11°C 11_9 0cm 0% 9mph 11mph 1011mB
3:00 4237m 7°C 7_5 0cm 0% 5mph 6mph 1014mB
6:00 4191m 5°C 5_3 0cm 24% 3mph 4mph 1015mB
9:00 4183m 5°C 5_3 0cm 54% 3mph 4mph 1014mB
12:00 4212m 6°C 6_4 0cm 58% 4mph 5mph 1013mB
15:00 4240m 7°C 7_6 0cm 37% 6mph 7mph 1013mB
18:00 4215m 13°C 13_11 0cm 58% 11mph 16mph 1012mB
21:00 4184m 13°C 13_15 0cm 90% 15mph 21mph 1010mB
0:00 4258m 13°C 13_15 0cm 88% 15mph 21mph 1009mB
3:00 4177m 7°C 7_7 0cm 9% 7mph 10mph 1011mB
6:00 4088m 5°C 5_7 0cm 15% 7mph 8mph 1012mB
9:00 3972m 5°C 5_6 0cm 1% 6mph 8mph 1012mB
12:00 3907m 5°C 5_7 0cm 1% 7mph 8mph 1012mB
15:00 3918m 6°C 6_6 0cm 0% 6mph 8mph 1013mB
18:00 3801m 13°C 13_7 0cm 0% 7mph 12mph 1012mB
Morning 0.322917mm 0 4076m 7°C 7_1 0cm 0% 1mph 2mph 1012mB
Afternoon 0.0572917mm 0 4111m 18°C 18_5 0cm 13% 5mph 6mph 1015mB
Morning 0.0260417mm 0 4116m 8°C 8_4 0cm 62% 4mph 5mph 1018mB
Afternoon 0.3125mm 0 3950m 18°C 18_4 0cm 46% 4mph 5mph 1021mB
Morning 0.572917mm 0 4096m 7°C 7_1 0cm 0% 1mph 2mph 1021mB
Afternoon 0.28125mm 0 4284m 20°C 20_2 0cm 0% 2mph 3mph 1019mB
Morning 0.0208333mm 0 4500m 10°C 10_4 0cm 0% 4mph 5mph 1016mB
Afternoon 0.00520833mm 0 4393m 21°C 21_2 0cm 0% 2mph 4mph 1013mB
Morning 0.0520833mm 0 4253m 8°C 8_2 0cm 60% 2mph 3mph 1012mB
Afternoon 0.078125mm 0 4221m 19°C 19_5 0cm 64% 5mph 6mph 1012mB
Morning 0.015625mm 0 4127m 6°C 6_3 0cm 0% 3mph 4mph 1012mB
Afternoon 0.0208333mm 0 3812m 16°C 16_6 0cm 0% 6mph 7mph 1011mB

16 day outlook at a glance

Forecast issued: 23/09/2018 06:12:43

Chat

Your comments and questions. In a resort? Let us know what it's like!


Characters left 250

For terms and conditions see Readers Comments on the Cookie and privacy policy page.